Year,Month,Day,Hour,Minute,Value (Times are PST for temperature in C)
2018,04,07,00,00,12.20
2018,04,07,00,01,12.20
2018,04,07,00,02,12.20
2018,04,07,00,03,12.40
2018,04,07,00,04,12.40
2018,04,07,00,05,12.50
2018,04,07,00,06,12.50
2018,04,07,00,07,12.60
2018,04,07,00,08,12.70
2018,04,07,00,09,12.70
2018,04,07,00,10,12.80
2018,04,07,00,11,12.80
2018,04,07,00,12,12.90
2018,04,07,00,13,13.00
2018,04,07,00,14,13.00
2018,04,07,00,15,13.10
2018,04,07,00,16,13.10
2018,04,07,00,17,13.10
2018,04,07,00,18,13.10
2018,04,07,00,19,13.10
2018,04,07,00,20,13.10
2018,04,07,00,21,13.10
2018,04,07,00,22,13.10
2018,04,07,00,23,13.10
2018,04,07,00,24,13.10
2018,04,07,00,25,13.10
2018,04,07,00,26,13.10
2018,04,07,00,27,13.10
2018,04,07,00,28,13.20
2018,04,07,00,29,13.20
2018,04,07,00,30,13.30
2018,04,07,00,31,13.30
2018,04,07,00,32,13.30
2018,04,07,00,33,13.30
2018,04,07,00,34,13.30
2018,04,07,00,35,13.30
2018,04,07,00,36,13.30
2018,04,07,00,37,13.30
2018,04,07,00,38,13.30
2018,04,07,00,39,13.30
2018,04,07,00,40,13.30
2018,04,07,00,41,13.30
2018,04,07,00,42,13.30
2018,04,07,00,43,13.30
2018,04,07,00,44,13.30
2018,04,07,00,45,13.30
2018,04,07,00,46,13.40
2018,04,07,00,47,13.40
2018,04,07,00,48,13.40
2018,04,07,00,49,13.50
2018,04,07,00,50,13.50
2018,04,07,00,51,13.50
2018,04,07,00,52,13.50
2018,04,07,00,53,13.40
2018,04,07,00,54,13.40
2018,04,07,00,55,13.40
2018,04,07,00,56,13.40
2018,04,07,00,57,13.50
2018,04,07,00,58,13.60
2018,04,07,00,59,13.60
2018,04,07,01,00,13.70
2018,04,07,01,01,13.70
2018,04,07,01,02,13.70
2018,04,07,01,03,13.60
2018,04,07,01,04,13.60
2018,04,07,01,05,13.60
2018,04,07,01,06,13.60
2018,04,07,01,07,13.60
2018,04,07,01,08,13.60
2018,04,07,01,09,13.60
2018,04,07,01,10,13.60
2018,04,07,01,11,13.60
2018,04,07,01,12,13.60
2018,04,07,01,13,13.60
2018,04,07,01,14,13.60
2018,04,07,01,15,13.60
2018,04,07,01,16,13.60
2018,04,07,01,17,13.60
2018,04,07,01,18,13.60
2018,04,07,01,19,13.60
2018,04,07,01,20,13.60
2018,04,07,01,21,13.60
2018,04,07,01,22,13.60
2018,04,07,01,23,13.60
2018,04,07,01,24,13.60
2018,04,07,01,25,13.60
2018,04,07,01,26,13.60
2018,04,07,01,27,13.60
2018,04,07,01,28,13.60
2018,04,07,01,29,13.70
2018,04,07,01,30,13.70
2018,04,07,01,31,13.70
2018,04,07,01,32,13.70
2018,04,07,01,33,13.70
2018,04,07,01,34,13.70
2018,04,07,01,35,13.70
2018,04,07,01,36,13.70
2018,04,07,01,37,13.70
2018,04,07,01,38,13.70
2018,04,07,01,39,13.70
2018,04,07,01,40,13.70
2018,04,07,01,41,13.70
2018,04,07,01,42,13.70
2018,04,07,01,43,13.70
2018,04,07,01,44,13.70
2018,04,07,01,45,13.70
2018,04,07,01,46,13.80
2018,04,07,01,47,13.80
2018,04,07,01,48,13.80
2018,04,07,01,49,13.80
2018,04,07,01,50,13.80
2018,04,07,01,51,13.70
2018,04,07,01,52,13.70
2018,04,07,01,53,13.70
2018,04,07,01,54,13.70
2018,04,07,01,55,13.70
2018,04,07,01,56,13.80
2018,04,07,01,57,13.80
2018,04,07,01,58,13.80
2018,04,07,01,59,13.80
2018,04,07,02,00,13.80
2018,04,07,02,01,13.80
2018,04,07,02,02,13.80
2018,04,07,02,03,13.90
2018,04,07,02,04,13.80
2018,04,07,02,05,13.80
2018,04,07,02,06,13.80
2018,04,07,02,07,13.70
2018,04,07,02,08,13.70
2018,04,07,02,09,13.70
2018,04,07,02,10,13.70
2018,04,07,02,11,13.60
2018,04,07,02,12,13.60
2018,04,07,02,13,13.70
2018,04,07,02,14,13.70
2018,04,07,02,15,13.60
2018,04,07,02,16,13.70
2018,04,07,02,17,13.70
2018,04,07,02,18,13.70
2018,04,07,02,19,13.70
2018,04,07,02,20,13.70
2018,04,07,02,21,13.70
2018,04,07,02,22,13.70
2018,04,07,02,23,13.70
2018,04,07,02,24,13.70
2018,04,07,02,25,13.70
2018,04,07,02,26,13.70
2018,04,07,02,27,13.70
2018,04,07,02,28,13.80
2018,04,07,02,29,13.80
2018,04,07,02,30,13.80
2018,04,07,02,31,13.80
2018,04,07,02,32,13.90
2018,04,07,02,33,13.90
2018,04,07,02,34,13.90
2018,04,07,02,35,13.90
2018,04,07,02,36,13.90
2018,04,07,02,37,13.90
2018,04,07,02,38,13.90
2018,04,07,02,39,13.90
2018,04,07,02,40,13.90
2018,04,07,02,41,13.90
2018,04,07,02,42,13.90
2018,04,07,02,43,13.90
2018,04,07,02,44,13.90
2018,04,07,02,45,13.90
2018,04,07,02,46,13.80
2018,04,07,02,47,13.80
2018,04,07,02,48,13.80
2018,04,07,02,49,13.80
2018,04,07,02,50,13.80
2018,04,07,02,51,13.70
2018,04,07,02,52,13.70
2018,04,07,02,53,13.70
2018,04,07,02,54,13.70
2018,04,07,02,55,13.70
2018,04,07,02,56,13.70
2018,04,07,02,57,13.70
2018,04,07,02,58,13.70
2018,04,07,02,59,13.70
2018,04,07,03,00,13.70
2018,04,07,03,01,13.70
2018,04,07,03,02,13.60
2018,04,07,03,03,13.60
2018,04,07,03,04,13.70
2018,04,07,03,05,13.70
2018,04,07,03,06,13.70
2018,04,07,03,07,13.70
2018,04,07,03,08,13.70
2018,04,07,03,09,13.70
2018,04,07,03,10,13.70
2018,04,07,03,11,13.70
2018,04,07,03,12,13.60
2018,04,07,03,13,13.60
2018,04,07,03,14,13.60
2018,04,07,03,15,13.60
2018,04,07,03,16,13.50
2018,04,07,03,17,13.40
2018,04,07,03,18,13.40
2018,04,07,03,19,13.30
2018,04,07,03,20,13.30
2018,04,07,03,21,13.30
2018,04,07,03,22,13.20
2018,04,07,03,23,13.10
2018,04,07,03,24,13.10
2018,04,07,03,25,13.00
2018,04,07,03,26,12.90
2018,04,07,03,27,12.80
2018,04,07,03,28,12.70
2018,04,07,03,29,12.60
2018,04,07,03,30,12.50
2018,04,07,03,31,12.40
2018,04,07,03,32,12.30
2018,04,07,03,33,12.30
2018,04,07,03,34,12.10
2018,04,07,03,35,12.00
2018,04,07,03,36,11.90
2018,04,07,03,37,11.80
2018,04,07,03,38,11.70
2018,04,07,03,39,11.60
2018,04,07,03,40,11.50
2018,04,07,03,41,11.40
2018,04,07,03,42,11.40
2018,04,07,03,43,11.30
2018,04,07,03,44,11.30
2018,04,07,03,45,11.30
2018,04,07,03,46,11.20
2018,04,07,03,47,11.20
2018,04,07,03,48,11.20
2018,04,07,03,49,11.20
2018,04,07,03,50,11.20
2018,04,07,03,51,11.10
2018,04,07,03,52,11.10
2018,04,07,03,53,11.20
2018,04,07,03,54,11.20
2018,04,07,03,55,11.20
2018,04,07,03,56,11.20
2018,04,07,03,57,11.30
2018,04,07,03,58,11.30
2018,04,07,03,59,11.30
2018,04,07,04,00,11.30
2018,04,07,04,01,11.30
2018,04,07,04,02,11.30
2018,04,07,04,03,11.30
2018,04,07,04,04,11.30
2018,04,07,04,05,11.30
2018,04,07,04,06,11.30
2018,04,07,04,07,11.30
2018,04,07,04,08,11.30
2018,04,07,04,09,11.30
2018,04,07,04,10,11.40
2018,04,07,04,11,11.40
2018,04,07,04,12,11.40
2018,04,07,04,13,11.50
2018,04,07,04,14,11.50
2018,04,07,04,15,11.60
2018,04,07,04,16,11.60
2018,04,07,04,17,11.60
2018,04,07,04,18,11.60
2018,04,07,04,19,11.60
2018,04,07,04,20,11.60
2018,04,07,04,21,11.60
2018,04,07,04,22,11.60
2018,04,07,04,23,11.60
2018,04,07,04,24,11.60
2018,04,07,04,25,11.60
2018,04,07,04,26,11.70
2018,04,07,04,27,11.80
2018,04,07,04,28,11.90
2018,04,07,04,29,11.90
2018,04,07,04,30,12.00
2018,04,07,04,31,12.00
2018,04,07,04,32,12.00
2018,04,07,04,33,12.10
2018,04,07,04,34,12.10
2018,04,07,04,35,12.10
2018,04,07,04,36,12.00
2018,04,07,04,37,11.90
2018,04,07,04,38,11.90
2018,04,07,04,39,11.90
2018,04,07,04,40,11.90
2018,04,07,04,41,11.90
2018,04,07,04,42,11.90
2018,04,07,04,43,11.90
2018,04,07,04,44,12.00
2018,04,07,04,45,11.90
2018,04,07,04,46,12.00
2018,04,07,04,47,12.00
2018,04,07,04,48,12.00
2018,04,07,04,49,12.00
2018,04,07,04,50,12.00
2018,04,07,04,51,12.00
2018,04,07,04,52,12.00
2018,04,07,04,53,12.10
2018,04,07,04,54,12.10
2018,04,07,04,55,12.20
2018,04,07,04,56,12.20
2018,04,07,04,57,12.20
2018,04,07,04,58,12.20
2018,04,07,04,59,12.20
2018,04,07,05,00,12.20
2018,04,07,05,01,12.20
2018,04,07,05,02,12.20
2018,04,07,05,03,12.10
2018,04,07,05,04,12.00
2018,04,07,05,05,12.00
2018,04,07,05,06,11.90
2018,04,07,05,07,11.90
2018,04,07,05,08,11.90
2018,04,07,05,09,11.80
2018,04,07,05,10,11.80
2018,04,07,05,11,11.70
2018,04,07,05,12,11.70
2018,04,07,05,13,11.70
2018,04,07,05,14,11.70
2018,04,07,05,15,11.70
2018,04,07,05,16,11.70
2018,04,07,05,17,11.60
2018,04,07,05,18,11.60
2018,04,07,05,19,11.50
2018,04,07,05,20,11.40
2018,04,07,05,21,11.40
2018,04,07,05,22,11.30
2018,04,07,05,23,11.30
2018,04,07,05,24,11.30
2018,04,07,05,25,11.30
2018,04,07,05,26,11.20
2018,04,07,05,27,11.20
2018,04,07,05,28,11.20
2018,04,07,05,29,11.10
2018,04,07,05,30,11.10
2018,04,07,05,31,11.20
2018,04,07,05,32,11.20
2018,04,07,05,33,11.20
2018,04,07,05,34,11.20
2018,04,07,05,35,11.10
2018,04,07,05,36,11.10
2018,04,07,05,37,11.10
2018,04,07,05,38,11.10
2018,04,07,05,39,11.10
2018,04,07,05,40,11.00
2018,04,07,05,41,11.00
2018,04,07,05,42,11.00
2018,04,07,05,43,11.00
2018,04,07,05,44,11.00
2018,04,07,05,45,11.00
2018,04,07,05,46,11.00
2018,04,07,05,47,11.00
2018,04,07,05,48,11.00
2018,04,07,05,49,11.00
2018,04,07,05,50,11.00
2018,04,07,05,51,11.00
2018,04,07,05,52,11.00
2018,04,07,05,53,11.00
2018,04,07,05,54,11.00
2018,04,07,05,55,11.00
2018,04,07,05,56,11.00
2018,04,07,05,57,11.00
2018,04,07,05,58,11.00
2018,04,07,05,59,11.00
2018,04,07,06,00,11.00
2018,04,07,06,01,10.90
2018,04,07,06,02,10.90
2018,04,07,06,03,10.90
2018,04,07,06,04,10.90
2018,04,07,06,05,10.90
2018,04,07,06,06,10.90
2018,04,07,06,07,10.90
2018,04,07,06,08,10.90
2018,04,07,06,09,10.90
2018,04,07,06,10,10.90
2018,04,07,06,11,10.90
2018,04,07,06,12,10.80
2018,04,07,06,13,10.80
2018,04,07,06,14,10.80
2018,04,07,06,15,10.80
2018,04,07,06,16,10.80
2018,04,07,06,17,10.80
2018,04,07,06,18,10.80
2018,04,07,06,19,10.80
2018,04,07,06,20,10.80
2018,04,07,06,21,10.80
2018,04,07,06,22,10.80
2018,04,07,06,23,10.80
2018,04,07,06,24,10.80
2018,04,07,06,25,10.80
2018,04,07,06,26,10.70
2018,04,07,06,27,10.70
2018,04,07,06,28,10.70
2018,04,07,06,29,10.70
2018,04,07,06,30,10.70
2018,04,07,06,31,10.70
2018,04,07,06,32,10.70
2018,04,07,06,33,10.70
2018,04,07,06,34,10.70
2018,04,07,06,35,10.70
2018,04,07,06,36,10.70
2018,04,07,06,37,10.70
2018,04,07,06,38,10.70
2018,04,07,06,39,10.70
2018,04,07,06,40,10.70
2018,04,07,06,41,10.70
2018,04,07,06,42,10.70
2018,04,07,06,43,10.70
2018,04,07,06,44,10.70
2018,04,07,06,45,10.70
2018,04,07,06,46,10.60
2018,04,07,06,47,10.60
2018,04,07,06,48,10.60
2018,04,07,06,49,10.60
2018,04,07,06,50,10.60
2018,04,07,06,51,10.60
2018,04,07,06,52,10.60
2018,04,07,06,53,10.60
2018,04,07,06,54,10.60
2018,04,07,06,55,10.60
2018,04,07,06,56,10.60
2018,04,07,06,57,10.60
2018,04,07,06,58,10.60
2018,04,07,06,59,10.60
2018,04,07,07,00,10.60
2018,04,07,07,01,10.50
2018,04,07,07,02,10.50
2018,04,07,07,03,10.50
2018,04,07,07,04,10.50
2018,04,07,07,05,10.50
2018,04,07,07,06,10.50
2018,04,07,07,07,10.50
2018,04,07,07,08,10.50
2018,04,07,07,09,10.50
2018,04,07,07,10,10.50
2018,04,07,07,11,10.50
2018,04,07,07,12,10.40
2018,04,07,07,13,10.40
2018,04,07,07,14,10.40
2018,04,07,07,15,10.40
2018,04,07,07,16,10.40
2018,04,07,07,17,10.40
2018,04,07,07,18,10.40
2018,04,07,07,19,10.40
2018,04,07,07,20,10.40
2018,04,07,07,21,10.40
2018,04,07,07,22,10.40
2018,04,07,07,23,10.30
2018,04,07,07,24,10.30
2018,04,07,07,25,10.30
2018,04,07,07,26,10.30
2018,04,07,07,27,10.30
2018,04,07,07,28,10.30
2018,04,07,07,29,10.30
2018,04,07,07,30,10.40
2018,04,07,07,31,10.40
2018,04,07,07,32,10.40
2018,04,07,07,33,10.40
2018,04,07,07,34,10.40
2018,04,07,07,35,10.40
2018,04,07,07,36,10.40
2018,04,07,07,37,10.40
2018,04,07,07,38,10.40
2018,04,07,07,39,10.40
2018,04,07,07,40,10.40
2018,04,07,07,41,10.40
2018,04,07,07,42,10.40
2018,04,07,07,43,10.40
2018,04,07,07,44,10.40
2018,04,07,07,45,10.40
2018,04,07,07,46,10.40
2018,04,07,07,47,10.40
2018,04,07,07,48,10.50
2018,04,07,07,49,10.50
2018,04,07,07,50,10.50
2018,04,07,07,51,10.50
2018,04,07,07,52,10.50
2018,04,07,07,53,10.50
2018,04,07,07,54,10.50
2018,04,07,07,55,10.50
2018,04,07,07,56,10.50
2018,04,07,07,57,10.50
2018,04,07,07,58,10.50
2018,04,07,07,59,10.50
2018,04,07,08,00,10.50
2018,04,07,08,01,10.50
2018,04,07,08,02,10.50
2018,04,07,08,03,10.50
2018,04,07,08,04,10.50
2018,04,07,08,05,10.50
2018,04,07,08,06,10.50
2018,04,07,08,07,10.50
2018,04,07,08,08,10.50
2018,04,07,08,09,10.50
2018,04,07,08,10,10.50
2018,04,07,08,11,10.50
2018,04,07,08,12,10.50
2018,04,07,08,13,10.50
2018,04,07,08,14,10.60
2018,04,07,08,15,10.60
2018,04,07,08,16,10.60
2018,04,07,08,17,10.60
2018,04,07,08,18,10.60
2018,04,07,08,19,10.60
2018,04,07,08,20,10.60
2018,04,07,08,21,10.60
2018,04,07,08,22,10.60
2018,04,07,08,23,10.60
2018,04,07,08,24,10.60
2018,04,07,08,25,10.60
2018,04,07,08,26,10.60
2018,04,07,08,27,10.60
2018,04,07,08,28,10.60
2018,04,07,08,29,10.60
2018,04,07,08,30,10.60
2018,04,07,08,31,10.60
2018,04,07,08,32,10.60
2018,04,07,08,33,10.60
2018,04,07,08,34,10.60
2018,04,07,08,35,10.60
2018,04,07,08,36,10.50
2018,04,07,08,37,10.50
2018,04,07,08,38,10.50
2018,04,07,08,39,10.50
2018,04,07,08,40,10.50
2018,04,07,08,41,10.50
2018,04,07,08,42,10.50
2018,04,07,08,43,10.50
2018,04,07,08,44,10.50
2018,04,07,08,45,10.50
2018,04,07,08,46,10.50
2018,04,07,08,47,10.50
2018,04,07,08,48,10.50
2018,04,07,08,49,10.50
2018,04,07,08,50,10.50
2018,04,07,08,51,10.50
2018,04,07,08,52,10.50
2018,04,07,08,53,10.50
2018,04,07,08,54,10.50
2018,04,07,08,55,10.50
2018,04,07,08,56,10.50
2018,04,07,08,57,10.50
2018,04,07,08,58,10.50
2018,04,07,08,59,10.50
2018,04,07,09,00,10.50
2018,04,07,09,01,10.50
2018,04,07,09,02,10.50
2018,04,07,09,03,10.50
2018,04,07,09,04,10.50
2018,04,07,09,05,10.50
2018,04,07,09,06,10.50
2018,04,07,09,07,10.50
2018,04,07,09,08,10.50
2018,04,07,09,09,10.50
2018,04,07,09,10,10.60
2018,04,07,09,11,10.60
2018,04,07,09,12,10.60
2018,04,07,09,13,10.60
2018,04,07,09,14,10.60
2018,04,07,09,15,10.60
2018,04,07,09,16,10.60
2018,04,07,09,17,10.60
2018,04,07,09,18,10.50
2018,04,07,09,19,10.50
2018,04,07,09,20,10.50
2018,04,07,09,21,10.50
2018,04,07,09,22,10.50
2018,04,07,09,23,10.50
2018,04,07,09,24,10.40
2018,04,07,09,25,10.40
2018,04,07,09,26,10.40
2018,04,07,09,27,10.40
2018,04,07,09,28,10.50
2018,04,07,09,29,10.50
2018,04,07,09,30,10.50
2018,04,07,09,31,10.40
2018,04,07,09,32,10.40
2018,04,07,09,33,10.40
2018,04,07,09,34,10.40
2018,04,07,09,35,10.40
2018,04,07,09,36,10.40
2018,04,07,09,37,10.40
2018,04,07,09,38,10.40
2018,04,07,09,39,10.40
2018,04,07,09,40,10.40
2018,04,07,09,41,10.40
2018,04,07,09,42,10.40
2018,04,07,09,43,10.40
2018,04,07,09,44,10.40
2018,04,07,09,45,10.40
2018,04,07,09,46,10.40
2018,04,07,09,47,10.40
2018,04,07,09,48,10.40
2018,04,07,09,49,10.40
2018,04,07,09,50,10.40
2018,04,07,09,51,10.40
2018,04,07,09,52,10.50
2018,04,07,09,53,10.50
2018,04,07,09,54,10.60
2018,04,07,09,55,10.60
2018,04,07,09,56,10.70
2018,04,07,09,57,10.70
2018,04,07,09,58,10.70
2018,04,07,09,59,10.80
2018,04,07,10,00,10.80
2018,04,07,10,01,10.90
2018,04,07,10,02,10.90
2018,04,07,10,03,11.00
2018,04,07,10,04,11.00
2018,04,07,10,05,11.10
2018,04,07,10,06,11.10
2018,04,07,10,07,11.10
2018,04,07,10,08,11.10
2018,04,07,10,09,11.10
2018,04,07,10,10,11.20
2018,04,07,10,11,11.20
2018,04,07,10,12,11.10
2018,04,07,10,13,11.10
2018,04,07,10,14,11.10
2018,04,07,10,15,11.10
2018,04,07,10,16,11.10
2018,04,07,10,17,11.20
2018,04,07,10,18,11.20
2018,04,07,10,19,11.20
2018,04,07,10,20,11.20
2018,04,07,10,21,11.20
2018,04,07,10,22,11.20
2018,04,07,10,23,11.30
2018,04,07,10,24,11.30
2018,04,07,10,25,11.40
2018,04,07,10,26,11.40
2018,04,07,10,27,11.50
2018,04,07,10,28,11.60
2018,04,07,10,29,11.70
2018,04,07,10,30,11.70
2018,04,07,10,31,11.80
2018,04,07,10,32,11.90
2018,04,07,10,33,12.00
2018,04,07,10,34,12.10
2018,04,07,10,35,12.20
2018,04,07,10,36,12.30
2018,04,07,10,37,12.40
2018,04,07,10,38,12.40
2018,04,07,10,39,12.40
2018,04,07,10,40,12.50
2018,04,07,10,41,12.50
2018,04,07,10,42,12.50
2018,04,07,10,43,12.50
2018,04,07,10,44,12.50
2018,04,07,10,45,12.50
2018,04,07,10,46,12.50
2018,04,07,10,47,12.40
2018,04,07,10,48,12.40
2018,04,07,10,49,12.40
2018,04,07,10,50,12.40
2018,04,07,10,51,12.30
2018,04,07,10,52,12.30
2018,04,07,10,53,12.20
2018,04,07,10,54,12.20
2018,04,07,10,55,12.20
2018,04,07,10,56,12.20
2018,04,07,10,57,12.20
2018,04,07,10,58,12.20
2018,04,07,10,59,12.10
2018,04,07,11,00,12.10
2018,04,07,11,01,12.10
2018,04,07,11,02,12.10
2018,04,07,11,03,12.10
2018,04,07,11,04,12.10
2018,04,07,11,05,12.10
2018,04,07,11,06,12.10
2018,04,07,11,07,12.10
2018,04,07,11,08,12.10
2018,04,07,11,09,12.10
2018,04,07,11,10,12.10
2018,04,07,11,11,12.10
2018,04,07,11,12,12.20
2018,04,07,11,13,12.20
2018,04,07,11,14,12.20
2018,04,07,11,15,12.20
2018,04,07,11,16,12.20
2018,04,07,11,17,12.30
2018,04,07,11,18,12.40
2018,04,07,11,19,12.50
2018,04,07,11,20,12.50
2018,04,07,11,21,12.50
2018,04,07,11,22,12.60
2018,04,07,11,23,12.60
2018,04,07,11,24,12.60
2018,04,07,11,25,12.60
2018,04,07,11,26,12.60
2018,04,07,11,27,12.60
2018,04,07,11,28,12.60
2018,04,07,11,29,12.60
2018,04,07,11,30,12.60
2018,04,07,11,31,12.70
2018,04,07,11,32,12.70
2018,04,07,11,33,12.70
2018,04,07,11,34,12.70
2018,04,07,11,35,12.70
2018,04,07,11,36,12.70
2018,04,07,11,37,12.70
2018,04,07,11,38,12.70
2018,04,07,11,39,12.70
2018,04,07,11,40,12.70
2018,04,07,11,41,12.70
2018,04,07,11,42,12.70
2018,04,07,11,43,12.70
2018,04,07,11,44,12.70
2018,04,07,11,45,12.70
2018,04,07,11,46,12.70
2018,04,07,11,47,12.70
2018,04,07,11,48,12.70
2018,04,07,11,49,12.80
2018,04,07,11,50,12.80
2018,04,07,11,51,12.90
2018,04,07,11,52,12.90
2018,04,07,11,53,12.90
2018,04,07,11,54,13.00
2018,04,07,11,55,13.00
2018,04,07,11,56,13.10
2018,04,07,11,57,13.10
2018,04,07,11,58,13.10
2018,04,07,11,59,13.10
2018,04,07,12,00,13.10
2018,04,07,12,01,13.10
2018,04,07,12,02,13.10
2018,04,07,12,03,13.10
2018,04,07,12,04,13.10
2018,04,07,12,05,13.10
2018,04,07,12,06,13.10
2018,04,07,12,07,13.10
2018,04,07,12,08,13.10
2018,04,07,12,09,13.10
2018,04,07,12,10,13.10
2018,04,07,12,11,13.00
2018,04,07,12,12,13.00
2018,04,07,12,13,13.00
2018,04,07,12,14,12.90
2018,04,07,12,15,12.90
2018,04,07,12,16,12.80
2018,04,07,12,17,12.80
2018,04,07,12,18,12.80
2018,04,07,12,19,12.80
2018,04,07,12,20,12.70
2018,04,07,12,21,12.70
2018,04,07,12,22,12.60
2018,04,07,12,23,12.60
2018,04,07,12,24,12.60
2018,04,07,12,25,12.50
2018,04,07,12,26,12.50
2018,04,07,12,27,12.40
2018,04,07,12,28,12.40
2018,04,07,12,29,12.40
2018,04,07,12,30,12.40
2018,04,07,12,31,12.30
2018,04,07,12,32,12.30
2018,04,07,12,33,12.30
2018,04,07,12,34,12.30
2018,04,07,12,35,12.20
2018,04,07,12,36,12.20
2018,04,07,12,37,12.20
2018,04,07,12,38,12.20
2018,04,07,12,39,12.20
2018,04,07,12,40,12.20
2018,04,07,12,41,12.20
2018,04,07,12,42,12.20
2018,04,07,12,43,12.20
2018,04,07,12,44,12.20
2018,04,07,12,45,12.20
2018,04,07,12,46,12.30
2018,04,07,12,47,12.30
2018,04,07,12,48,12.20
2018,04,07,12,49,12.20
2018,04,07,12,50,12.20
2018,04,07,12,51,12.20
2018,04,07,12,52,12.30
2018,04,07,12,53,12.30
2018,04,07,12,54,12.40
2018,04,07,12,55,12.50
2018,04,07,12,56,12.50
2018,04,07,12,57,12.60
2018,04,07,12,58,12.70
2018,04,07,12,59,12.70
2018,04,07,13,00,12.80
2018,04,07,13,01,12.80
2018,04,07,13,02,12.80
2018,04,07,13,03,12.90
2018,04,07,13,04,12.90
2018,04,07,13,05,12.90
2018,04,07,13,06,12.90
2018,04,07,13,07,12.90
2018,04,07,13,08,12.90
2018,04,07,13,09,12.80
2018,04,07,13,10,12.80
2018,04,07,13,11,12.70
2018,04,07,13,12,12.70
2018,04,07,13,13,12.60
2018,04,07,13,14,12.50
2018,04,07,13,15,12.50
2018,04,07,13,16,12.50
2018,04,07,13,17,12.50
2018,04,07,13,18,12.40
2018,04,07,13,19,12.40
2018,04,07,13,20,12.40
2018,04,07,13,21,12.40
2018,04,07,13,22,12.40
2018,04,07,13,23,12.40
2018,04,07,13,24,12.50
2018,04,07,13,25,12.50
2018,04,07,13,26,12.50
2018,04,07,13,27,12.50
2018,04,07,13,28,12.50
2018,04,07,13,29,12.50
2018,04,07,13,30,12.50
2018,04,07,13,31,12.50
2018,04,07,13,32,12.60
2018,04,07,13,33,12.60
2018,04,07,13,34,12.60
2018,04,07,13,35,12.60
2018,04,07,13,36,12.50
2018,04,07,13,37,12.50
2018,04,07,13,38,12.40
2018,04,07,13,39,12.40
2018,04,07,13,40,12.30
2018,04,07,13,41,12.30
2018,04,07,13,42,12.30
2018,04,07,13,43,12.30
2018,04,07,13,44,12.30
2018,04,07,13,45,12.40
2018,04,07,13,46,12.50
2018,04,07,13,47,12.50
2018,04,07,13,48,12.60
2018,04,07,13,49,12.70
2018,04,07,13,50,12.70
2018,04,07,13,51,12.70
2018,04,07,13,52,12.80
2018,04,07,13,53,12.70
2018,04,07,13,54,12.70
2018,04,07,13,55,12.70
2018,04,07,13,56,12.70
2018,04,07,13,57,12.70
2018,04,07,13,58,12.70
2018,04,07,13,59,12.70
2018,04,07,14,00,12.70
2018,04,07,14,01,12.70
2018,04,07,14,02,12.70
2018,04,07,14,03,12.70
2018,04,07,14,04,12.70
2018,04,07,14,05,12.70
2018,04,07,14,06,12.70
2018,04,07,14,07,12.60
2018,04,07,14,08,12.60
2018,04,07,14,09,12.60
2018,04,07,14,10,12.50
2018,04,07,14,11,12.40
2018,04,07,14,12,12.40
2018,04,07,14,13,12.30
2018,04,07,14,14,12.30
2018,04,07,14,15,12.20
2018,04,07,14,16,12.20
2018,04,07,14,17,12.10
2018,04,07,14,18,12.10
2018,04,07,14,19,12.10
2018,04,07,14,20,12.10
2018,04,07,14,21,12.10
2018,04,07,14,22,12.00
2018,04,07,14,23,12.00
2018,04,07,14,24,11.90
2018,04,07,14,25,11.80
2018,04,07,14,26,11.80
2018,04,07,14,27,11.70
2018,04,07,14,28,11.70
2018,04,07,14,29,11.60
2018,04,07,14,30,11.60
2018,04,07,14,31,11.60
2018,04,07,14,32,11.60
2018,04,07,14,33,11.60
2018,04,07,14,34,11.60
2018,04,07,14,35,11.60
2018,04,07,14,36,11.60
2018,04,07,14,37,11.60
2018,04,07,14,38,11.70
2018,04,07,14,39,11.70
2018,04,07,14,40,11.70
2018,04,07,14,41,11.70
2018,04,07,14,42,11.70
2018,04,07,14,43,11.60
2018,04,07,14,44,11.60
2018,04,07,14,45,11.60
2018,04,07,14,46,11.60
2018,04,07,14,47,11.50
2018,04,07,14,48,11.50
2018,04,07,14,49,11.50
2018,04,07,14,50,11.50
2018,04,07,14,51,11.50
2018,04,07,14,52,11.50
2018,04,07,14,53,11.60
2018,04,07,14,54,11.60
2018,04,07,14,55,11.60
2018,04,07,14,56,11.70
2018,04,07,14,57,11.70
2018,04,07,14,58,11.70
2018,04,07,14,59,11.60
2018,04,07,15,00,11.50
2018,04,07,15,01,11.40
2018,04,07,15,02,11.30
2018,04,07,15,03,11.30
2018,04,07,15,04,11.30
2018,04,07,15,05,11.30
2018,04,07,15,06,11.40
2018,04,07,15,07,11.50
2018,04,07,15,08,11.50
2018,04,07,15,09,11.70
2018,04,07,15,10,11.70
2018,04,07,15,11,11.70
2018,04,07,15,12,11.70
2018,04,07,15,13,11.70
2018,04,07,15,14,11.70
2018,04,07,15,15,11.70
2018,04,07,15,16,11.70
2018,04,07,15,17,11.90
2018,04,07,15,18,11.90
2018,04,07,15,19,11.90
2018,04,07,15,20,11.90
2018,04,07,15,21,11.90
2018,04,07,15,22,11.90
2018,04,07,15,23,11.90
2018,04,07,15,24,11.90
2018,04,07,15,25,11.90
2018,04,07,15,26,11.90
2018,04,07,15,27,11.90
2018,04,07,15,28,11.90
2018,04,07,15,29,11.90
2018,04,07,15,30,11.90
2018,04,07,15,31,11.90
2018,04,07,15,32,11.90
2018,04,07,15,33,11.80
2018,04,07,15,34,11.80
2018,04,07,15,35,11.80
2018,04,07,15,36,11.70
2018,04,07,15,37,11.70
2018,04,07,15,38,11.70
2018,04,07,15,39,11.70
2018,04,07,15,40,11.60
2018,04,07,15,41,11.50
2018,04,07,15,42,11.50
2018,04,07,15,43,11.40
2018,04,07,15,44,11.40
2018,04,07,15,45,11.40
2018,04,07,15,46,11.40
2018,04,07,15,47,11.50
2018,04,07,15,48,11.40
2018,04,07,15,49,11.40
2018,04,07,15,50,11.40
2018,04,07,15,51,11.40
2018,04,07,15,52,11.40
2018,04,07,15,53,11.30
2018,04,07,15,54,11.30
2018,04,07,15,55,11.30
2018,04,07,15,56,11.30
2018,04,07,15,57,11.30
2018,04,07,15,58,11.30
2018,04,07,15,59,11.20
2018,04,07,16,00,11.20
2018,04,07,16,01,11.20
2018,04,07,16,02,11.10
2018,04,07,16,03,11.10
2018,04,07,16,04,11.10
2018,04,07,16,05,11.20
2018,04,07,16,06,11.20
2018,04,07,16,07,11.20
2018,04,07,16,08,11.20
2018,04,07,16,09,11.30
2018,04,07,16,10,11.30
2018,04,07,16,11,11.30
2018,04,07,16,12,11.30
2018,04,07,16,13,11.30
2018,04,07,16,14,11.30
2018,04,07,16,15,11.30
2018,04,07,16,16,11.20
2018,04,07,16,17,11.20
2018,04,07,16,18,11.10
2018,04,07,16,19,11.10
2018,04,07,16,20,11.00
2018,04,07,16,21,11.00
2018,04,07,16,22,11.00
2018,04,07,16,23,10.90
2018,04,07,16,24,10.90
2018,04,07,16,25,10.90
2018,04,07,16,26,10.90
2018,04,07,16,27,10.90
2018,04,07,16,28,10.90
2018,04,07,16,29,10.80
2018,04,07,16,30,10.80
2018,04,07,16,31,10.70
2018,04,07,16,32,10.60
2018,04,07,16,33,10.60
2018,04,07,16,34,10.50
2018,04,07,16,35,10.40
2018,04,07,16,36,10.30
2018,04,07,16,37,10.30
2018,04,07,16,38,10.30
2018,04,07,16,39,10.30
2018,04,07,16,40,10.30
2018,04,07,16,41,10.30
2018,04,07,16,42,10.30
2018,04,07,16,43,10.30
2018,04,07,16,44,10.20
2018,04,07,16,45,10.20
2018,04,07,16,46,10.10
2018,04,07,16,47,10.10
2018,04,07,16,48,10.10
2018,04,07,16,49,10.10
2018,04,07,16,50,10.10
2018,04,07,16,51,10.10
2018,04,07,16,52,10.00
2018,04,07,16,53,10.00
2018,04,07,16,54,10.00
2018,04,07,16,55,9.90
2018,04,07,16,56,9.90
2018,04,07,16,57,9.90
2018,04,07,16,58,10.00
2018,04,07,16,59,10.00
2018,04,07,17,00,10.00
2018,04,07,17,01,10.00
2018,04,07,17,02,10.00
2018,04,07,17,03,10.10
2018,04,07,17,04,10.10
2018,04,07,17,05,10.20
2018,04,07,17,06,10.20
2018,04,07,17,07,10.20
2018,04,07,17,08,10.20
2018,04,07,17,09,10.20
2018,04,07,17,10,10.20
2018,04,07,17,11,10.20
2018,04,07,17,12,10.20
2018,04,07,17,13,10.20
2018,04,07,17,14,10.20
2018,04,07,17,15,10.20
2018,04,07,17,16,10.20
2018,04,07,17,17,10.20
2018,04,07,17,18,10.20
2018,04,07,17,19,10.20